Dewpoint
25 23 22 21 21 20 20 20 19 18 18 18 18 17 17 18 17 17 16 14 15 15
24 23 21 21 21 21 20 19 18 17 17 17 17 17 17 16 15 16 16 16 16 16
23 22 22 22 20 20 19 17 16 16 15 15 16 16 17 16 15 15 16 17 17 16
22 22 22 21 20 19 17 16 15 15 15 15 16 16 15 15 15 15 15 15 16 16
21 20 20 19 18 17 16 16 15 15 15 16 15 14 14 14 15 14 15 15 16 16
19 19 18 17 17 16 15 15 16 16 16 16 15 14 14 14 15 16 15 17 17 18
17 18 17 17 17 17 19 20 23 26 26 21 16 16 16 17 17 17 18 19 20 20
20 22 23 24 25 26 26 26 26 23 20 20 19 20 20 20 19 18 19 22 22 23
25 25 25 25 25 26 25 25 24 24 23 23 23 23 24 20 21 24 25 25 25 24
24 24 24 24 24 24 24 25 24 25 25 24 23 24 25 26 27 28 27 27 24 23
24 24 24 24 24 25 25 25 25 25 25 25 25 28 30 29 30 29 29 27 27 24
24 24 24 23 23 23 23 23 23 24 23 24 24 27 29 29 28 28 27 28 24 22
22 22 22 22 22 23 23 23 24 24 24 24 24 26 27 28 27 26 27 24 22 21
20 20 21 22 22 22 22 23 22 23 23 24 24 24 26 27 27 26 26 24 23 23
Wind_Speed
12 13 12 14 15 13 14 14 14 14 12 13 12 10 10 9 8 8 9 9 7 7
14 14 15 13 13 12 12 13 13 13 13 11 10 9 9 7 7 8 7 7 6 5
12 12 13 14 15 14 14 16 16 15 13 11 10 9 7 9 8 8 7 7 8 4
10 11 12 13 13 14 14 16 17 15 13 11 11 9 8 9 8 7 8 6 7 6
8 10 11 13 14 15 16 14 16 16 13 11 10 9 7 9 9 8 9 8 7 7
6 9 11 13 14 15 17 16 12 14 13 9 8 7 6 8 8 7 7 8 8 6
7 9 11 11 13 13 14 14 13 13 11 11 10 8 7 6 7 7 6 6 4 3
12 12 14 15 15 15 14 12 10 11 10 10 9 8 7 5 6 8 7 6 5 5
9 10 11 12 11 10 10 10 11 10 8 8 7 11 12 11 8 5 6 7 7 8
10 11 11 10 10 10 10 9 9 9 9 9 5 9 10 11 8 8 8 7 4 4
7 7 7 7 7 7 8 8 8 8 6 6 6 9 9 9 6 7 7 6 6 6
7 7 5 6 6 5 5 5 5 6 7 7 6 7 4 1 1 6 6 6 9 7
7 6 5 4 4 4 3 4 4 5 6 8 6 7 5 2 2 5 5 8 7 8
6 5 4 2 2 3 3 4 4 5 6 4 4 2 4 7 6 3 4 6 4 4
Wind_Direction
164 158 161 162 161 161 160 153 150 142 136 129 122 118 115 115 113 103 110 102 106 107
149 159 163 159 153 156 150 146 139 134 130 127 131 131 133 125 121 124 119 125 119 117
148 157 156 153 158 158 149 146 141 135 138 143 146 151 148 136 139 131 128 141 143 138
137 154 151 153 148 152 145 147 144 143 145 148 144 143 143 141 146 154 149 132 153 167
120 138 140 144 143 145 144 151 146 147 143 139 149 160 165 156 160 172 160 168 162 174
119 136 140 140 137 139 142 143 134 132 131 126 139 156 160 155 159 164 165 164 175 191
132 133 131 132 134 137 129 118 109 116 146 168 156 154 150 148 157 169 160 157 161 190
83 91 97 101 98 96 101 115 135 154 138 129 138 144 156 173 180 182 174 170 185 215
84 84 91 96 114 121 126 123 120 120 138 160 178 191 189 190 179 159 174 201 213 221
87 93 97 104 113 122 134 143 160 172 180 177 168 203 196 193 188 210 212 207 201 211
104 120 135 148 154 156 163 165 162 156 149 165 194 223 220 221 202 205 167 192 211 229
75 94 105 114 118 117 137 153 170 180 183 187 190 228 229 185 171 181 195 210 228 226
56 77 89 115 137 136 169 175 177 179 181 196 177 218 212 235 204 230 207 228 227 246
40 62 69 89 111 151 172 172 187 187 161 173 159 209 220 240 225 243 220 227 244 230